Flag for Egypt Weather past 2 weeks in Al Jizah, Egypt

Now
66 °F

Scattered clouds.


Feels Like: 66 °F
Forecast: 51 / 67 °F
Wind: 6 mph from West

Location: Cairo Airport

Current Time: Dec 22, 2014 at 1:06:05 PM

Latest Report: Dec 22, 2014 at 1:00 PM


Visibility: N/A

Pressure: 30.09 "Hg

Humidity: 60%

Dew point: 52 °F

Location of Al JizahLocation

Historic Weather in Al Jizah — Graph

°F

Al Jizah temperature yesterday

Maximum temperature yesterday: 68 °F (at 1:30 PM)
Minimum temperature yesterday: 54 °F (at 7:00 AM)
Average temperature yesterday: 61 °F

Past Weeks' High & Low Weather Summary

 TemperatureHumidityPressure
High81 °F (Dec 11, 3:00 PM)100% (Dec 7, 10:00 PM)30.27 "Hg (Dec 7, 10:00 PM)
Low52 °F (Dec 17, 3:30 AM)14% (Dec 11, 4:00 PM)29.80 "Hg (Dec 9, 1:00 AM)
Average63 °F58%30.08 "Hg
* Reported Dec 7 12:00 Noon — Dec 22 12:00 Noon, Al Jizah, Weather by CustomWeather, © 2014

Note: Actual official high and low records may vary slightly from our data, if they occured in-between our weather recording intervals... More about our weather records

Advertising

Al Jizah weather history for previous 24 hours

 ConditionsComfort  
Time TempWeatherWind HumidityBarometerVisibility
12:00 PM
Dec 22
66 °FPassing clouds.9 mph60%30.12 "HgN/A
11:30 AM64 °FClear.6 mph64%30.12 "Hg4 mi
11:00 AM63 °FHaze.6 mph64%30.15 "Hg2 mi
10:30 AM63 °FHaze.8 mph64%30.15 "Hg1 mi
10:00 AM61 °FHaze.8 mph68%30.15 "Hg1 mi
9:30 AM61 °FPartly sunny.8 mph68%30.15 "Hg2 mi
9:00 AM61 °FPartly sunny.8 mph68%30.15 "Hg2 mi
8:30 AM59 °FFog.No wind72%30.15 "Hg2 mi
8:00 AM57 °FFog.No wind77%30.15 "Hg2 mi
7:30 AM55 °FFog.No wind77%30.15 "Hg2 mi
7:00 AM54 °FFog.No wind82%30.15 "Hg2 mi
6:30 AM55 °FFog.No wind77%30.15 "Hg2 mi
5:30 AM55 °FClear.No wind77%30.12 "Hg4 mi
5:00 AM55 °FClear.No wind77%30.12 "Hg4 mi
4:30 AM54 °FClear.No wind82%30.15 "Hg4 mi
4:00 AM54 °FClear.2 mph77%30.15 "Hg4 mi
3:30 AM54 °FClear.No wind77%30.15 "Hg4 mi
3:00 AM54 °FClear.No wind77%30.15 "Hg4 mi
2:30 AM54 °FClear.No wind77%30.15 "Hg4 mi
2:00 AM55 °FClear.No wind67%30.18 "Hg4 mi
1:00 AM55 °FClear.No wind77%30.18 "Hg10 mi
12:30 AM55 °FClear.No wind77%30.18 "Hg10 mi
12:00 AM55 °FClear.No wind72%30.18 "Hg10 mi
11:30 PM
Dec 21
55 °FClear.No wind67%30.18 "Hg10 mi
11:00 PM55 °FClear.No wind67%30.18 "Hg10 mi
10:30 PM57 °FClear.No wind67%30.18 "Hg10 mi
10:00 PM59 °FClear.No wind63%30.18 "Hg10 mi
9:30 PM59 °FClear.No wind63%30.18 "Hg10 mi
9:00 PM61 °FClear.No wind59%30.18 "Hg10 mi
8:30 PM61 °FClear.No wind59%30.18 "Hg10 mi
8:00 PM63 °FClear.No wind56%30.18 "Hg10 mi
7:30 PM63 °FClear.No wind52%30.18 "Hg10 mi
7:00 PM64 °FClear.5 mph46%30.18 "Hg10 mi
6:30 PM64 °FClear.5 mph46%30.15 "Hg10 mi
6:00 PM64 °FClear.5 mph46%30.15 "Hg10 mi
5:30 PM64 °FClear.6 mph46%30.15 "Hg10 mi
5:00 PM66 °FClear.7 mph43%30.15 "Hg10 mi
4:30 PM68 °FSunny.8 mph40%30.15 "Hg10 mi
4:00 PM68 °FPassing clouds.8 mph35%30.15 "HgN/A
3:30 PM68 °FPassing clouds.10 mph40%30.15 "HgN/A
3:00 PM68 °FScattered clouds.9 mph40%30.12 "HgN/A
2:30 PM68 °FScattered clouds.8 mph40%30.12 "HgN/A
2:00 PM68 °FScattered clouds.7 mph43%30.15 "HgN/A
1:30 PM68 °FScattered clouds.8 mph43%30.15 "HgN/A
1:00 PM66 °FPartly sunny.7 mph43%30.15 "HgN/A
Weather by CustomWeather, © 2014

See weather overviewHow to use our weather pages